| time (UTC) | temp F | wind direction | speed knots | gust knots | rain 1hr in | rain 24hr in | rain mn in | humidity % | barometer mb |
| 20260906103104 | 62 | 105 | 0.0 | 1.7 | 0.00 | 0.00 | 0.00 | 91 | 1015.3 |
| 20260906102604 | 63 | 106 | 0.0 | 0.0 | 0.00 | 0.00 | 0.00 | 90 | 1015.2 |
| 20260906101603 | 63 | 106 | 0.0 | 1.7 | 0.00 | 0.00 | 0.00 | 90 | 1015.1 |
| 20260906101103 | 63 | 106 | 0.0 | 0.0 | 0.00 | 0.00 | 0.00 | 90 | 1015.1 |
| 20260906100604 | 63 | 106 | 0.0 | 0.0 | 0.00 | 0.00 | 0.00 | 90 | 1015.0 |
| 20260906100104 | 63 | 106 | 0.0 | 1.7 | 0.00 | 0.00 | 0.00 | 90 | 1015.0 |
| 20260906095604 | 63 | 73 | 0.0 | 2.6 | 0.00 | 0.00 | 0.00 | 90 | 1015.0 |
| 20260906094605 | 63 | 74 | 0.9 | 5.2 | 0.00 | 0.00 | 0.00 | 90 | 1014.9 |
| 20260906094105 | 63 | 79 | 0.9 | 2.6 | 0.00 | 0.00 | 0.00 | 90 | 1014.8 |
| 20260906093603 | 63 | 77 | 0.9 | 2.6 | 0.00 | 0.00 | 0.00 | 90 | 1014.7 |
| 20260906093104 | 63 | 59 | 2.6 | 5.2 | 0.00 | 0.00 | 0.00 | 90 | 1014.7 |
| 20260906092604 | 63 | 93 | 0.9 | 2.6 | 0.00 | 0.00 | 0.00 | 90 | 1014.7 |
| 20260906092104 | 63 | 84 | 3.5 | 7.8 | 0.00 | 0.00 | 0.00 | 90 | 1014.7 |
| 20260906091605 | 63 | 80 | 3.5 | 7.8 | 0.00 | 0.00 | 0.00 | 90 | 1014.7 |
| 20260906091105 | 63 | 89 | 1.7 | 4.3 | 0.00 | 0.00 | 0.00 | 90 | 1014.6 |
| 20260906090104 | 64 | 99 | 1.7 | 2.6 | 0.00 | 0.00 | 0.00 | 90 | 1014.5 |
| 20260906085604 | 64 | 99 | 0.9 | 2.6 | 0.00 | 0.00 | 0.00 | 89 | 1014.5 |
| 20260906085104 | 64 | 106 | 0.0 | 1.7 | 0.00 | 0.00 | 0.00 | 90 | 1014.6 |
| 20260906084604 | 64 | 106 | 0.0 | 2.6 | 0.00 | 0.00 | 0.00 | 90 | 1014.7 |
| 20260906084105 | 64 | 105 | 0.9 | 2.6 | 0.00 | 0.00 | 0.00 | 90 | 1014.7 |
| 20260906083604 | 64 | 105 | 0.0 | 0.0 | 0.00 | 0.00 | 0.00 | 89 | 1014.7 |
| 20260906083104 | 64 | 103 | 0.0 | 0.0 | 0.00 | 0.00 | 0.00 | 89 | 1014.6 |
| 20260906082605 | 64 | 103 | 0.0 | 0.0 | 0.00 | 0.00 | 0.00 | 89 | 1014.5 |
| 20260906082105 | 64 | 103 | 0.0 | 0.0 | 0.00 | 0.00 | 0.00 | 89 | 1014.4 |
| 20260906081604 | 64 | 103 | 0.0 | 0.0 | 0.00 | 0.00 | 0.00 | 89 | 1014.4 |
| 20260906081104 | 64 | 103 | 0.0 | 0.0 | 0.00 | 0.00 | 0.00 | 89 | 1014.5 |
| 20260906080604 | 64 | 103 | 0.0 | 0.0 | 0.00 | 0.00 | 0.00 | 89 | 1014.3 |
| 20260906080104 | 64 | 103 | 0.0 | 0.0 | 0.00 | 0.00 | 0.00 | 89 | 1014.3 |
| 20260906075604 | 64 | 103 | 0.0 | 0.0 | 0.00 | 0.00 | 0.00 | 89 | 1014.2 |
| 20260906075104 | 64 | 103 | 0.0 | 2.6 | 0.00 | 0.00 | 0.00 | 89 | 1014.2 |
| 20260906074104 | 64 | 86 | 0.0 | 1.7 | 0.00 | 0.00 | 0.00 | 89 | 1014.1 |
| 20260906073604 | 64 | 85 | 0.9 | 2.6 | 0.00 | 0.00 | 0.00 | 89 | 1014.2 |
| 20260906072605 | 64 | 115 | 0.0 | 1.7 | 0.00 | 0.00 | 0.00 | 90 | 1014.3 |
| 20260906072104 | 64 | 114 | 0.9 | 2.6 | 0.00 | 0.00 | 0.00 | 90 | 1014.2 |
| 20260906071604 | 64 | 105 | 0.9 | 2.6 | 0.00 | 0.00 | 0.00 | 90 | 1014.2 |
| 20260906070104 | 65 | 59 | 0.0 | 0.0 | 0.00 | 0.00 | 0.00 | 90 | 1014.3 |
| 20260906065103 | 65 | 59 | 0.0 | 0.0 | 0.00 | 0.00 | 0.00 | 90 | 1014.2 |
| 20260906064604 | 65 | 59 | 0.0 | 0.0 | 0.00 | 0.00 | 0.00 | 90 | 1014.3 |
| 20260906064105 | 65 | 59 | 0.0 | 0.0 | 0.00 | 0.00 | 0.00 | 90 | 1014.4 |
| 20260906063604 | 65 | 59 | 0.0 | 0.0 | 0.00 | 0.00 | 0.00 | 90 | 1014.3 |
| 20260906063103 | 65 | 59 | 0.0 | 0.0 | 0.00 | 0.00 | 0.00 | 89 | 1014.4 |
| 20260906062605 | 65 | 59 | 0.0 | 0.0 | 0.00 | 0.00 | 0.00 | 89 | 1014.4 |
| 20260906062105 | 65 | 59 | 0.0 | 0.0 | 0.00 | 0.00 | 0.00 | 89 | 1014.3 |
| 20260906061604 | 65 | 59 | 0.0 | 0.0 | 0.00 | 0.00 | 0.00 | 89 | 1014.3 |
| 20260906060604 | 65 | 59 | 0.0 | 0.0 | 0.00 | 0.00 | 0.00 | 89 | 1014.4 |
| 20260906060104 | 65 | 59 | 0.0 | 0.0 | 0.00 | 0.00 | 0.00 | 89 | 1014.3 |
| 20260906055604 | 65 | 59 | 0.0 | 1.7 | 0.00 | 0.00 | 0.00 | 90 | 1014.4 |
| 20260906055104 | 65 | 59 | 0.9 | 2.6 | 0.00 | 0.00 | 0.00 | 90 | 1014.4 |
| 20260906054605 | 65 | 32 | 0.9 | 2.6 | 0.00 | 0.00 | 0.00 | 91 | 1014.4 |
| 20260906054105 | 65 | 53 | 0.0 | 0.0 | 0.00 | 0.00 | 0.00 | 90 | 1014.5 |
| 20260906053603 | 65 | 53 | 0.0 | 0.0 | 0.00 | 0.00 | 0.00 | 91 | 1014.6 |
| 20260906053104 | 65 | 53 | 0.0 | 0.0 | 0.00 | 0.00 | 0.00 | 91 | 1014.6 |
| 20260906052605 | 64 | 53 | 0.0 | 0.0 | 0.00 | 0.00 | 0.00 | 91 | 1014.6 |
| 20260906052105 | 64 | 53 | 0.0 | 2.6 | 0.00 | 0.00 | 0.00 | 91 | 1014.5 |
| 20260906051104 | 64 | 54 | 0.0 | 0.9 | 0.00 | 0.00 | 0.00 | 91 | 1014.5 |
| 20260906050104 | 64 | 53 | 0.0 | 0.0 | 0.00 | 0.00 | 0.00 | 91 | 1014.3 |
| 20260906045605 | 64 | 53 | 0.0 | 0.0 | 0.00 | 0.00 | 0.00 | 91 | 1014.4 |
| 20260906045104 | 64 | 53 | 0.0 | 0.0 | 0.00 | 0.00 | 0.00 | 91 | 1014.5 |
| 20260906044603 | 64 | 53 | 0.0 | 0.0 | 0.00 | 0.00 | 0.00 | 91 | 1014.5 |
| 20260906043605 | 64 | 53 | 0.0 | 0.0 | 0.00 | 0.00 | 0.00 | 91 | 1014.5 |
| 20260906042604 | 64 | 53 | 0.0 | 0.0 | 0.00 | 0.00 | 0.00 | 91 | 1014.5 |
| 20260906042104 | 64 | 53 | 0.0 | 0.0 | 0.00 | 0.00 | 0.00 | 91 | 1014.5 |
| 20260906041604 | 64 | 53 | 0.0 | 0.0 | 0.00 | 0.00 | 0.00 | 90 | 1014.5 |
| 20260906041104 | 64 | 53 | 0.0 | 0.9 | 0.00 | 0.00 | 0.00 | 90 | 1014.5 |
| 20260906040604 | 64 | 54 | 0.0 | 1.7 | 0.00 | 0.00 | 0.00 | 90 | 1014.4 |
| 20260906040105 | 64 | 45 | 0.0 | 0.0 | 0.00 | 0.00 | 0.00 | 90 | 1014.3 |
| 20260906035604 | 64 | 45 | 0.0 | 0.0 | 0.00 | 0.00 | 0.00 | 90 | 1014.3 |
| 20260906035103 | 64 | 45 | 0.0 | 0.0 | 0.00 | 0.00 | 0.00 | 90 | 1014.3 |
| 20260906034604 | 64 | 45 | 0.0 | 0.0 | 0.00 | 0.00 | 0.00 | 90 | 1014.3 |
| 20260906034104 | 64 | 45 | 0.0 | 0.0 | 0.00 | 0.00 | 0.00 | 89 | 1014.3 |
| 20260906033604 | 64 | 45 | 0.0 | 0.9 | 0.00 | 0.00 | 0.00 | 89 | 1014.3 |
| 20260906032603 | 64 | 45 | 0.0 | 1.7 | 0.00 | 0.00 | 0.00 | 89 | 1014.3 |
| 20260906032104 | 64 | 45 | 0.0 | 0.0 | 0.00 | 0.00 | 0.00 | 89 | 1014.2 |
| 20260906031604 | 64 | 45 | 0.0 | 0.0 | 0.00 | 0.00 | 0.00 | 88 | 1014.0 |
| 20260906031104 | 64 | 45 | 0.0 | 0.0 | 0.00 | 0.00 | 0.00 | 88 | 1014.0 |
| 20260906030603 | 64 | 45 | 0.0 | 0.0 | 0.00 | 0.00 | 0.00 | 88 | 1013.9 |
| 20260906025604 | 65 | 45 | 0.0 | 0.0 | 0.00 | 0.00 | 0.00 | 87 | 1013.8 |
| 20260906025104 | 65 | 45 | 0.0 | 0.0 | 0.00 | 0.00 | 0.00 | 87 | 1013.8 |
| 20260906024605 | 65 | 45 | 0.0 | 0.0 | 0.00 | 0.00 | 0.00 | 87 | 1013.9 |
| 20260906023603 | 66 | 45 | 0.0 | 0.0 | 0.00 | 0.00 | 0.00 | 86 | 1013.8 |
| 20260906023104 | 66 | 45 | 0.0 | 0.0 | 0.00 | 0.00 | 0.00 | 86 | 1013.9 |
| 20260906022104 | 66 | 45 | 0.0 | 0.0 | 0.00 | 0.00 | 0.00 | 85 | 1013.9 |
| 20260906021603 | 66 | 45 | 0.0 | 0.0 | 0.00 | 0.00 | 0.00 | 85 | 1014.0 |
| 20260906021104 | 66 | 45 | 0.0 | 0.0 | 0.00 | 0.00 | 0.00 | 84 | 1013.9 |
| 20260906020605 | 67 | 45 | 0.0 | 0.0 | 0.00 | 0.00 | 0.00 | 84 | 1013.8 |
| 20260906020104 | 67 | 45 | 0.0 | 2.6 | 0.00 | 0.00 | 0.00 | 84 | 1013.8 |
| 20260906015604 | 67 | 45 | 0.0 | 0.0 | 0.00 | 0.00 | 0.00 | 83 | 1013.8 |
| 20260906015104 | 67 | 45 | 0.0 | 0.0 | 0.00 | 0.00 | 0.00 | 82 | 1013.8 |
| 20260906014604 | 68 | 45 | 0.0 | 0.0 | 0.00 | 0.00 | 0.00 | 81 | 1013.7 |
| 20260906013604 | 68 | 45 | 0.0 | 0.0 | 0.00 | 0.00 | 0.00 | 80 | 1013.7 |
| 20260906013103 | 69 | 45 | 0.0 | 0.0 | 0.00 | 0.00 | 0.00 | 79 | 1013.7 |
| 20260906012604 | 69 | 45 | 0.0 | 0.0 | 0.00 | 0.00 | 0.00 | 78 | 1013.7 |
| 20260906012104 | 69 | 40 | 0.0 | 0.9 | 0.00 | 0.00 | 0.00 | 78 | 1013.5 |
| 20260906011604 | 70 | 44 | 0.0 | 1.7 | 0.00 | 0.00 | 0.00 | 77 | 1013.5 |
| 20260906011104 | 70 | 40 | 0.9 | 1.7 | 0.00 | 0.00 | 0.00 | 77 | 1013.6 |
| 20260906010603 | 70 | 40 | 1.7 | 2.6 | 0.00 | 0.00 | 0.00 | 77 | 1013.6 |
| 20260906010104 | 70 | 40 | 0.9 | 1.7 | 0.00 | 0.00 | 0.00 | 77 | 1013.4 |
| 20260906005604 | 70 | 40 | 0.0 | 0.0 | 0.00 | 0.00 | 0.00 | 76 | 1013.4 |
| 20260906004604 | 70 | 43 | 1.7 | 2.6 | 0.00 | 0.00 | 0.00 | 76 | 1013.2 |
| 20260906004104 | 70 | 58 | 1.7 | 2.6 | 0.00 | 0.00 | 0.00 | 76 | 1013.2 |
| 20260906003104 | 71 | 23 | 0.9 | 5.2 | 0.00 | 0.00 | 0.00 | 75 | 1013.1 |
| 20260906002603 | 71 | 40 | 0.0 | 0.9 | 0.00 | 0.00 | 0.00 | 75 | 1013.1 |
| 20260906002105 | 71 | 31 | 0.9 | 2.6 | 0.00 | 0.00 | 0.00 | 75 | 1013.1 |
| 20260906001604 | 71 | 34 | 1.7 | 4.3 | 0.00 | 0.00 | 0.00 | 75 | 1013.1 |
| 20260906001103 | 71 | 51 | 1.7 | 4.3 | 0.00 | 0.00 | 0.00 | 75 | 1013.1 |
| 20260906000604 | 71 | 26 | 2.6 | 5.2 | 0.00 | 0.00 | 0.00 | 75 | 1013.1 |
| 20260906000105 | 71 | 38 | 1.7 | 4.3 | 0.00 | 0.00 | 0.00 | 75 | 1013.0 |
| 20260905235603 | 71 | 30 | 1.7 | 4.3 | 0.00 | 0.00 | 0.00 | 75 | 1012.9 |
| 20260905235104 | 71 | 19 | 1.7 | 4.3 | 0.00 | 0.00 | 0.00 | 75 | 1012.8 |
| 20260905234604 | 71 | 48 | 0.0 | 2.6 | 0.00 | 0.00 | 0.00 | 74 | 1012.7 |
| 20260905234104 | 71 | 51 | 1.7 | 4.3 | 0.00 | 0.00 | 0.00 | 74 | 1012.6 |
| 20260905233603 | 71 | 33 | 1.7 | 4.3 | 0.00 | 0.00 | 0.00 | 74 | 1012.6 |
| 20260905232604 | 71 | 22 | 2.6 | 5.2 | 0.00 | 0.00 | 0.00 | 74 | 1012.6 |
| 20260905232103 | 71 | 31 | 2.6 | 7.8 | 0.00 | 0.00 | 0.00 | 74 | 1012.6 |
| 20260905231604 | 72 | 22 | 1.7 | 4.3 | 0.00 | 0.00 | 0.00 | 75 | 1012.6 |
| 20260905230604 | 72 | 23 | 2.6 | 5.2 | 0.00 | 0.00 | 0.00 | 74 | 1012.5 |
| 20260905230104 | 73 | 31 | 2.6 | 7.0 | 0.00 | 0.00 | 0.00 | 73 | 1012.5 |
| 20260905225603 | 73 | 100 | 0.9 | 2.6 | 0.00 | 0.00 | 0.00 | 72 | 1012.4 |
| 20260905225104 | 73 | 359 | 1.7 | 4.3 | 0.00 | 0.00 | 0.00 | 72 | 1012.4 |
| 20260905224604 | 73 | 20 | 2.6 | 7.0 | 0.00 | 0.00 | 0.00 | 71 | 1012.4 |
| 20260905224104 | 73 | 30 | 0.9 | 4.3 | 0.00 | 0.00 | 0.00 | 71 | 1012.3 |
| 20260905223603 | 73 | 20 | 1.7 | 2.6 | 0.00 | 0.00 | 0.00 | 70 | 1012.1 |
| 20260905223105 | 73 | 16 | 2.6 | 4.3 | 0.00 | 0.00 | 0.00 | 70 | 1012.1 |
| 20260905222604 | 73 | 28 | 2.6 | 8.7 | 0.00 | 0.00 | 0.00 | 70 | 1012.2 |
| 20260905222104 | 74 | 9 | 0.9 | 2.6 | 0.00 | 0.00 | 0.00 | 70 | 1012.1 |
| 20260905221604 | 74 | 17 | 1.7 | 2.6 | 0.00 | 0.00 | 0.00 | 70 | 1012.0 |
| 20260905220605 | 74 | 25 | 1.7 | 4.3 | 0.00 | 0.00 | 0.00 | 69 | 1011.9 |
| 20260905220104 | 75 | 8 | 2.6 | 6.1 | 0.00 | 0.00 | 0.00 | 68 | 1011.9 |
| 20260905215603 | 75 | 31 | 2.6 | 7.0 | 0.00 | 0.00 | 0.00 | 68 | 1011.9 |
| 20260905215104 | 75 | 355 | 1.7 | 6.1 | 0.00 | 0.00 | 0.00 | 68 | 1011.9 |
| 20260905214604 | 75 | 11 | 1.7 | 5.2 | 0.00 | 0.00 | 0.00 | 68 | 1011.7 |
| 20260905214104 | 75 | 38 | 1.7 | 2.6 | 0.00 | 0.00 | 0.00 | 67 | 1011.7 |
| 20260905213603 | 75 | 94 | 0.9 | 4.3 | 0.00 | 0.00 | 0.00 | 66 | 1011.7 |
| 20260905213104 | 75 | 28 | 1.7 | 5.2 | 0.00 | 0.00 | 0.00 | 66 | 1011.7 |
| 20260905212605 | 76 | 16 | 2.6 | 7.8 | 0.00 | 0.00 | 0.00 | 65 | 1011.6 |
| 20260905212104 | 76 | 50 | 1.7 | 4.3 | 0.00 | 0.00 | 0.00 | 64 | 1011.6 |
| 20260905211604 | 77 | 45 | 3.5 | 7.0 | 0.00 | 0.00 | 0.00 | 62 | 1011.6 |
| 20260905211103 | 77 | 337 | 1.7 | 5.2 | 0.00 | 0.00 | 0.00 | 63 | 1011.6 |
| 20260905210605 | 77 | 40 | 0.9 | 4.3 | 0.00 | 0.00 | 0.00 | 63 | 1011.5 |
| 20260905210104 | 77 | 49 | 0.9 | 2.6 | 0.00 | 0.00 | 0.00 | 63 | 1011.4 |
| 20260905205104 | 76 | 24 | 0.9 | 2.6 | 0.00 | 0.00 | 0.00 | 64 | 1011.4 |
| 20260905204605 | 76 | 21 | 1.7 | 4.3 | 0.00 | 0.00 | 0.00 | 63 | 1011.4 |
| 20260905204104 | 77 | 52 | 2.6 | 7.0 | 0.00 | 0.00 | 0.00 | 61 | 1011.3 |
| 20260905203604 | 78 | 27 | 1.7 | 8.7 | 0.00 | 0.00 | 0.00 | 59 | 1011.3 |
| 20260905202603 | 80 | 30 | 3.5 | 7.0 | 0.00 | 0.00 | 0.00 | 58 | 1011.3 |
| 20260905202103 | 80 | 45 | 1.7 | 4.3 | 0.00 | 0.00 | 0.00 | 60 | 1011.3 |
| 20260905201604 | 79 | 20 | 3.5 | 7.8 | 0.00 | 0.00 | 0.00 | 59 | 1011.3 |
| 20260905201103 | 79 | 1 | 4.3 | 8.7 | 0.00 | 0.00 | 0.00 | 58 | 1011.3 |
| 20260905200604 | 79 | 18 | 1.7 | 5.2 | 0.00 | 0.00 | 0.00 | 61 | 1011.3 |
| 20260905200104 | 78 | 100 | 2.6 | 6.1 | 0.00 | 0.00 | 0.00 | 60 | 1011.3 |
| 20260905195604 | 79 | 37 | 3.5 | 7.8 | 0.00 | 0.00 | 0.00 | 60 | 1011.3 |
| 20260905195104 | 78 | 80 | 3.5 | 8.7 | 0.00 | 0.00 | 0.00 | 61 | 1011.3 |
| 20260905194604 | 78 | 44 | 4.3 | 7.8 | 0.00 | 0.00 | 0.00 | 61 | 1011.3 |
| 20260905193604 | 78 | 351 | 3.5 | 8.7 | 0.00 | 0.00 | 0.00 | 60 | 1011.2 |
| 20260905193103 | 78 | 47 | 2.6 | 7.8 | 0.00 | 0.00 | 0.00 | 59 | 1011.2 |
| 20260905192104 | 78 | 95 | 2.6 | 7.8 | 0.00 | 0.00 | 0.00 | 60 | 1011.2 |
| 20260905191603 | 78 | 6 | 1.7 | 7.0 | 0.00 | 0.00 | 0.00 | 63 | 1011.3 |
| 20260905191104 | 77 | 26 | 2.6 | 7.8 | 0.00 | 0.00 | 0.00 | 63 | 1011.4 |
| 20260905190604 | 78 | 6 | 2.6 | 5.2 | 0.00 | 0.00 | 0.00 | 62 | 1011.4 |
| 20260905190103 | 78 | 82 | 1.7 | 6.1 | 0.00 | 0.00 | 0.00 | 61 | 1011.3 |
| 20260905185604 | 79 | 22 | 2.6 | 7.0 | 0.00 | 0.00 | 0.00 | 60 | 1011.4 |
| 20260905184604 | 80 | 27 | 0.9 | 2.6 | 0.00 | 0.00 | 0.00 | 59 | 1011.4 |
| 20260905184103 | 80 | 65 | 2.6 | 8.7 | 0.00 | 0.00 | 0.00 | 58 | 1011.4 |
| 20260905183604 | 79 | 90 | 2.6 | 7.0 | 0.00 | 0.00 | 0.00 | 58 | 1011.5 |
| 20260905183103 | 79 | 42 | 2.6 | 7.0 | 0.00 | 0.00 | 0.00 | 59 | 1011.5 |
| 20260905182604 | 79 | 353 | 2.6 | 7.0 | 0.00 | 0.00 | 0.00 | 61 | 1011.5 |
| 20260905182103 | 78 | 350 | 0.9 | 7.8 | 0.00 | 0.00 | 0.00 | 64 | 1011.5 |
| 20260905181104 | 78 | 27 | 1.7 | 8.7 | 0.00 | 0.00 | 0.00 | 62 | 1011.7 |
| 20260905180604 | 78 | 19 | 5.2 | 10.4 | 0.00 | 0.00 | 0.00 | 61 | 1011.7 |
| 20260905175104 | 77 | 50 | 3.5 | 7.8 | 0.00 | 0.00 | 0.00 | 63 | 1011.9 |
| 20260905174604 | 77 | 65 | 4.3 | 10.4 | 0.00 | 0.00 | 0.00 | 66 | 1011.9 |
| 20260905173603 | 77 | 95 | 5.2 | 8.7 | 0.00 | 0.00 | 0.00 | 66 | 1012.0 |
| 20260905173103 | 76 | 86 | 0.9 | 10.4 | 0.00 | 0.00 | 0.00 | 67 | 1012.0 |
| 20260905172603 | 76 | 84 | 3.5 | 10.4 | 0.00 | 0.00 | 0.00 | 66 | 1012.0 |
| 20260905172104 | 76 | 63 | 1.7 | 7.8 | 0.00 | 0.00 | 0.00 | 68 | 1012.1 |
| 20260905171604 | 75 | 0 | 1.7 | 6.1 | 0.00 | 0.00 | 0.00 | 69 | 1012.1 |
| 20260905171103 | 75 | 57 | 1.7 | 7.8 | 0.00 | 0.00 | 0.00 | 68 | 1012.1 |
| 20260905170603 | 75 | 89 | 2.6 | 8.7 | 0.00 | 0.00 | 0.00 | 67 | 1012.2 |
| 20260905170104 | 76 | 58 | 4.3 | 11.3 | 0.00 | 0.00 | 0.00 | 66 | 1012.2 |
| 20260905165603 | 76 | 97 | 4.3 | 7.8 | 0.00 | 0.00 | 0.00 | 67 | 1012.1 |
| 20260905165104 | 76 | 18 | 3.5 | 7.0 | 0.00 | 0.00 | 0.00 | 67 | 1012.2 |
| 20260905164604 | 75 | 44 | 2.6 | 7.0 | 0.00 | 0.00 | 0.00 | 69 | 1012.2 |
| 20260905164105 | 75 | 84 | 1.7 | 4.3 | 0.00 | 0.00 | 0.00 | 70 | 1012.2 |
| 20260905163606 | 75 | 103 | 0.9 | 4.3 | 0.00 | 0.00 | 0.00 | 70 | 1012.2 |
| 20260905163105 | 75 | 20 | 4.3 | 7.8 | 0.00 | 0.00 | 0.00 | 69 | 1012.2 |
| 20260905162605 | 75 | 4 | 0.0 | 1.7 | 0.00 | 0.00 | 0.00 | 69 | 1012.1 |
| 20260905162106 | 76 | 358 | 1.7 | 7.0 | 0.00 | 0.00 | 0.00 | 68 | 1012.1 |
| 20260905161605 | 76 | 109 | 0.0 | 2.6 | 0.00 | 0.00 | 0.00 | 70 | 1012.1 |
| 20260905161105 | 75 | 118 | 1.7 | 4.3 | 0.00 | 0.00 | 0.00 | 71 | 1012.2 |
| 20260905160605 | 74 | 27 | 2.6 | 4.3 | 0.00 | 0.00 | 0.00 | 70 | 1012.2 |
| 20260905160105 | 74 | 122 | 2.6 | 6.1 | 0.00 | 0.00 | 0.00 | 72 | 1012.1 |
| 20260905155605 | 75 | 9 | 1.7 | 4.3 | 0.00 | 0.00 | 0.00 | 71 | 1012.2 |
| 20260905155104 | 75 | 55 | 1.7 | 5.2 | 0.00 | 0.00 | 0.00 | 70 | 1012.2 |
| 20260905154605 | 75 | 97 | 1.7 | 4.3 | 0.00 | 0.00 | 0.00 | 72 | 1012.2 |
| 20260905154105 | 75 | 107 | 1.7 | 6.1 | 0.00 | 0.00 | 0.00 | 72 | 1012.2 |
| 20260905153605 | 75 | 99 | 1.7 | 10.4 | 0.00 | 0.00 | 0.00 | 72 | 1012.2 |
| 20260905153105 | 76 | 2 | 2.6 | 7.0 | 0.00 | 0.00 | 0.00 | 71 | 1012.2 |
| 20260905152606 | 75 | 77 | 2.6 | 10.4 | 0.00 | 0.00 | 0.00 | 73 | 1012.2 |
| 20260905151605 | 74 | 124 | 3.5 | 7.8 | 0.00 | 0.00 | 0.00 | 75 | 1012.3 |
| 20260905150606 | 74 | 83 | 2.6 | 5.2 | 0.00 | 0.00 | 0.00 | 75 | 1012.4 |
| 20260905150105 | 74 | 139 | 1.7 | 5.2 | 0.00 | 0.00 | 0.00 | 75 | 1012.4 |
| 20260905145106 | 74 | 112 | 2.6 | 2.6 | 0.00 | 0.00 | 0.00 | 73 | 1012.5 |
| 20260905144605 | 74 | 112 | 0.9 | 2.6 | 0.00 | 0.00 | 0.00 | 73 | 1012.3 |
| 20260905144105 | 74 | 112 | 2.6 | 6.1 | 0.00 | 0.00 | 0.00 | 75 | 1012.2 |
| 20260905143606 | 74 | 126 | 1.7 | 2.6 | 0.00 | 0.00 | 0.00 | 74 | 1012.3 |
| 20260905143104 | 74 | 125 | 0.9 | 2.6 | 0.00 | 0.00 | 0.00 | 76 | 1012.4 |
| 20260905142605 | 74 | 126 | 1.7 | 2.6 | 0.00 | 0.00 | 0.00 | 76 | 1012.4 |
| 20260905142105 | 73 | 125 | 0.9 | 2.6 | 0.00 | 0.00 | 0.00 | 76 | 1012.4 |
| 20260905141605 | 73 | 125 | 0.9 | 2.6 | 0.00 | 0.00 | 0.00 | 77 | 1012.3 |
| 20260905141105 | 73 | 125 | 1.7 | 4.3 | 0.00 | 0.00 | 0.00 | 76 | 1012.4 |
| 20260905140606 | 73 | 125 | 0.9 | 4.3 | 0.00 | 0.00 | 0.00 | 78 | 1012.3 |
| 20260905135605 | 73 | 126 | 2.6 | 4.3 | 0.00 | 0.00 | 0.00 | 77 | 1012.4 |
| 20260905135105 | 72 | 128 | 0.9 | 4.3 | 0.00 | 0.00 | 0.00 | 78 | 1012.4 |
| 20260905134605 | 72 | 157 | 0.0 | 1.7 | 0.00 | 0.00 | 0.00 | 81 | 1012.5 |
| 20260905133604 | 71 | 183 | 0.9 | 4.3 | 0.00 | 0.00 | 0.00 | 83 | 1012.5 |
| 20260905132605 | 70 | 167 | 2.6 | 2.6 | 0.00 | 0.00 | 0.00 | 86 | 1012.6 |
| 20260905132105 | 68 | 224 | 0.9 | 2.6 | 0.00 | 0.00 | 0.00 | 86 | 1012.5 |
| 20260905131605 | 67 | 242 | 0.0 | 0.0 | 0.00 | 0.00 | 0.00 | 87 | 1012.6 |
| 20260905130605 | 67 | 242 | 0.0 | 0.0 | 0.00 | 0.00 | 0.00 | 86 | 1012.7 |
| 20260905130105 | 67 | 242 | 0.0 | 2.6 | 0.00 | 0.00 | 0.00 | 86 | 1012.7 |
| 20260905125605 | 67 | 242 | 0.0 | 1.7 | 0.00 | 0.00 | 0.00 | 87 | 1012.9 |
| 20260905125105 | 67 | 242 | 0.0 | 1.7 | 0.00 | 0.00 | 0.00 | 87 | 1012.9 |
| 20260905124605 | 66 | 242 | 0.9 | 1.7 | 0.00 | 0.00 | 0.00 | 87 | 1012.9 |
| 20260905124105 | 66 | 242 | 0.0 | 4.3 | 0.00 | 0.00 | 0.00 | 87 | 1012.8 |
| 20260905123105 | 66 | 282 | 1.7 | 4.3 | 0.00 | 0.00 | 0.00 | 88 | 1012.8 |
| 20260905122605 | 66 | 268 | 2.6 | 7.0 | 0.00 | 0.00 | 0.00 | 89 | 1012.9 |
| 20260905122106 | 66 | 281 | 3.5 | 7.0 | 0.00 | 0.00 | 0.00 | 90 | 1012.9 |
| 20260905121605 | 65 | 266 | 4.3 | 7.0 | 0.00 | 0.00 | 0.00 | 91 | 1012.9 |
| 20260905121105 | 65 | 279 | 1.7 | 2.6 | 0.00 | 0.00 | 0.00 | 92 | 1012.9 |
| 20260905120605 | 64 | 273 | 1.7 | 5.2 | 0.00 | 0.00 | 0.00 | 93 | 1012.8 |
| 20260905120105 | 64 | 307 | 0.9 | 6.1 | 0.00 | 0.00 | 0.00 | 94 | 1012.7 |
| 20260905115605 | 64 | 276 | 0.9 | 5.2 | 0.00 | 0.00 | 0.00 | 95 | 1012.6 |
| 20260905115105 | 63 | 264 | 1.7 | 6.1 | 0.00 | 0.00 | 0.00 | 95 | 1012.6 |
| 20260905114605 | 63 | 286 | 2.6 | 6.1 | 0.00 | 0.00 | 0.00 | 95 | 1012.6 |
| 20260905114105 | 62 | 286 | 1.7 | 2.6 | 0.00 | 0.00 | 0.00 | 95 | 1012.5 |
| 20260905113605 | 62 | 280 | 1.7 | 4.3 | 0.00 | 0.00 | 0.00 | 95 | 1012.4 |
| 20260905112606 | 61 | 336 | 0.0 | 0.0 | 0.00 | 0.00 | 0.00 | 96 | 1012.4 |
| 20260905112104 | 61 | 336 | 0.0 | 0.0 | 0.00 | 0.00 | 0.00 | 95 | 1012.4 |
| 20260905111605 | 60 | 336 | 0.0 | 0.0 | 0.00 | 0.00 | 0.00 | 95 | 1012.2 |
| 20260905111106 | 60 | 336 | 0.0 | 0.0 | 0.00 | 0.00 | 0.00 | 95 | 1012.2 |
| 20260905110605 | 60 | 336 | 0.0 | 0.0 | 0.00 | 0.00 | 0.00 | 95 | 1012.2 |
| 20260905110105 | 60 | 336 | 0.0 | 0.0 | 0.00 | 0.00 | 0.00 | 95 | 1012.1 |
| 20260905105105 | 60 | 336 | 0.0 | 0.0 | 0.00 | 0.01 | 0.00 | 95 | 1011.9 |
| 20260905104604 | 60 | 336 | 0.0 | 0.0 | 0.00 | 0.01 | 0.00 | 95 | 1011.9 |
| 20260905104105 | 60 | 336 | 0.0 | 0.0 | 0.00 | 0.01 | 0.00 | 95 | 1011.8 |
| 20260905103605 | 60 | 336 | 0.0 | 0.0 | 0.00 | 0.01 | 0.00 | 95 | 1011.7 |